FW5729 Weather Reports


Display with metric or nautical units.
time (UTC)temp
F
wind
direction
speed
MPH
gust
MPH
rain 1hr
in
rain 24hr
in
rain mn
in
humidity
%
barometer
mb
20260509161536 82 219 0.0 5.0 0.00 0.01 0.01 73 1010.9
20260509160033 81 0 0.0 3.0 0.00 0.01 0.01 77 1010.9
20260509154538 82 0 1.0 11.0 0.00 0.01 0.01 76 1010.9
20260509153039 80 0 0.0 5.0 0.00 0.01 0.01 79 1010.8
20260509151538 79 0 0.0 3.0 0.00 0.01 0.01 80 1010.6
20260509150036 79 0 0.0 4.0 0.00 0.01 0.01 80 1010.5
20260509144534 78 0 0.0 3.0 0.00 0.01 0.01 83 1010.5
20260509143035 77 0 0.0 0.0 0.00 0.01 0.01 86 1010.4
20260509141534 76 0 0.0 5.0 0.00 0.01 0.01 88 1009.9
20260509140041 75 0 0.0 1.0 0.00 0.01 0.01 88 1009.8
20260509134538 75 0 0.0 4.0 0.00 0.01 0.01 89 1009.6
20260509133033 74 0 0.0 5.0 0.01 0.01 0.01 91 1009.7
20260509131545 73 216 0.0 2.0 0.01 0.01 0.01 95 1010.1
20260509130038 71 0 0.0 0.0 0.01 0.01 0.01 96 1010.4
20260509124531 71 0 0.0 0.0 0.01 0.01 0.01 97 1010.6
20260509123033 70 0 0.0 0.0 0.00 0.00 0.00 97 1010.3
20260509121533 70 0 0.0 0.0 0.00 0.00 0.00 97 1010.3
20260509120036 70 0 0.0 0.0 0.00 0.00 0.00 97 1010.5
20260509114536 70 0 0.0 0.0 0.00 0.00 0.00 97 1010.7
20260509113042 70 0 0.0 0.0 0.00 0.00 0.00 97 1010.7
20260509111535 70 0 0.0 0.0 0.00 0.00 0.00 97 1011.3
20260509110032 70 0 0.0 0.0 0.00 0.00 0.00 97 1011.5
20260509104542 70 0 0.0 2.0 0.00 0.00 0.00 97 1011.4
20260509103034 70 0 0.0 0.0 0.00 0.00 0.00 96 1011.4
20260509101546 70 0 0.0 0.0 0.00 0.00 0.00 96 1011.2
20260509100034 70 0 1.0 2.0 0.00 0.00 0.00 96 1010.8
20260509094535 70 0 0.0 0.0 0.00 0.00 0.00 96 1010.2
20260509093035 70 0 0.0 0.0 0.00 0.00 0.00 96 1009.9
20260509091534 70 0 0.0 0.0 0.00 0.00 0.00 96 1009.8
20260509090032 70 0 0.0 0.0 0.00 0.00 0.00 96 1009.9
20260509084539 70 0 0.0 0.0 0.00 0.00 0.00 96 1009.9
20260509083041 70 0 0.0 0.0 0.00 0.00 0.00 96 1010.1
20260509081534 70 0 0.0 0.0 0.00 0.00 0.00 95 1010.4
20260509080037 70 0 0.0 0.0 0.00 0.00 0.00 95 1010.4
20260509074533 70 0 0.0 0.0 0.00 0.00 0.00 94 1010.1
20260509073037 70 0 0.0 0.0 0.00 0.00 0.00 94 1010.2
20260509071532 70 0 0.0 3.0 0.00 0.00 0.00 94 1010.6
20260509070035 70 0 0.0 0.0 0.00 0.00 0.00 94 1010.7
20260509064540 70 0 0.0 0.0 0.00 0.00 0.00 94 1010.3
20260509063032 70 0 0.0 0.0 0.00 0.00 0.00 93 1010.2
20260509061532 70 0 0.0 0.0 0.00 0.00 0.00 94 1010.7
20260509060033 70 0 0.0 1.0 0.00 0.00 0.00 94 1010.1
20260509054536 70 0 0.0 0.0 0.00 0.00 0.00 94 1009.8
20260509053032 70 0 0.0 2.0 0.00 0.00 0.00 94 1009.9
20260509051536 70 0 0.0 2.0 0.00 0.00 0.00 93 1009.4
20260509050039 70 0 0.0 0.0 0.00 0.00 0.00 93 1009.0
20260509044534 70 0 0.0 0.0 0.00 0.00 0.00 92 1008.9
20260509043033 70 0 0.0 0.0 0.00 0.00 0.00 91 1009.2
20260509041532 71 0 0.0 0.0 0.00 0.00 0.00 91 1009.6
20260509040043 71 0 0.0 1.0 0.00 0.00 0.00 90 1009.4
20260509034549 71 0 0.0 2.0 0.00 0.00 0.00 90 1009.2
20260509033034 71 0 0.0 1.0 0.00 0.00 0.00 89 1009.3
20260509031535 72 0 0.0 2.0 0.00 0.00 0.00 88 1009.1
20260509030040 72 0 0.0 1.0 0.00 0.00 0.00 87 1009.3
20260509024540 73 0 0.0 2.0 0.00 0.00 0.00 86 1009.1
20260509023035 73 0 0.0 1.0 0.00 0.00 0.00 85 1008.9
20260509021535 74 0 0.0 0.0 0.00 0.00 0.00 84 1008.2
20260509020032 74 0 0.0 2.0 0.00 0.00 0.00 83 1008.1
20260509014533 75 0 0.0 5.0 0.00 0.00 0.00 82 1008.1
20260509013033 75 0 1.0 4.0 0.00 0.00 0.00 80 1007.8
20260509011532 76 0 1.0 6.0 0.00 0.00 0.00 79 1007.8
20260509010037 76 215 0.0 3.0 0.00 0.00 0.00 79 1007.7
20260509004535 77 0 0.0 1.0 0.00 0.00 0.00 78 1008.0
20260509003032 77 0 0.0 1.0 0.00 0.00 0.00 77 1007.9
20260509001538 77 0 0.0 2.0 0.00 0.00 0.00 77 1008.0
20260509000029 77 0 0.0 3.0 0.00 0.00 0.00 77 1008.0
20260508234533 77 212 0.0 1.0 0.00 0.00 0.00 77 1008.2
20260508233033 77 0 0.0 1.0 0.00 0.00 0.00 77 1008.1
20260508231534 77 0 0.0 0.0 0.00 0.00 0.00 79 1008.0
20260508230055 77 0 0.0 3.0 0.00 0.00 0.00 78 1008.0
20260508224540 77 0 1.0 5.0 0.00 0.00 0.00 77 1008.0
20260508223044 77 0 1.0 4.0 0.00 0.00 0.00 77 1008.1
20260508221535 77 0 0.0 8.0 0.00 0.00 0.00 75 1008.2
20260508220033 78 0 2.0 5.0 0.00 0.00 0.00 74 1008.3
20260508214550 79 75 0.0 6.0 0.00 0.00 0.00 72 1008.3
20260508213031 78 69 2.0 5.0 0.00 0.00 0.00 72 1008.4
20260508211536 80 41 0.0 3.0 0.00 0.00 0.00 69 1008.5
20260508210037 79 72 1.0 4.0 0.00 0.00 0.00 73 1008.8
20260508204536 77 0 0.0 5.0 0.00 0.00 0.00 73 1009.2
20260508203032 77 63 2.0 4.0 0.00 0.00 0.00 74 1009.3
20260508201532 77 57 2.0 8.0 0.00 0.00 0.00 73 1009.6
20260508200041 78 49 3.0 9.0 0.00 0.00 0.00 71 1009.7
20260508194533 78 52 2.0 5.0 0.00 0.00 0.00 72 1009.7
20260508193051 76 61 4.0 8.0 0.00 0.00 0.00 73 1010.0
20260508191542 76 66 3.0 5.0 0.00 0.00 0.00 73 1010.1
20260508190051 75 0 0.0 4.0 0.00 0.00 0.00 75 1010.6
20260508184536 75 59 3.0 4.0 0.00 0.00 0.00 75 1010.5
20260508183041 75 53 0.0 6.0 0.00 0.00 0.00 74 1010.7
20260508181539 75 0 0.0 6.0 0.00 0.00 0.00 75 1011.1
20260508180055 74 75 3.0 6.0 0.00 0.00 0.00 74 1011.2
20260508174549 73 56 3.0 8.0 0.00 0.00 0.00 75 1011.1
20260508173034 72 63 4.0 6.0 0.00 0.00 0.00 76 1011.4
20260508171534 72 53 0.0 5.0 0.00 0.00 0.00 78 1011.7
20260508170036 70 0 1.0 7.0 0.00 0.00 0.00 77 1012.0
20260508164546 71 66 0.0 3.0 0.00 0.00 0.00 76 1012.2
20260508163035 68 0 0.0 2.0 0.00 0.00 0.00 77 1012.6